Location: Bethel Church
(38.0159°N, 88.7292°W)
Time: 01:28:47
(UTC+00:00)

Cosmos 1655 Rocket - Visible Passes

Search period start: 26 June 2022 00:00
Search period end: 06 July 2022 00:00
Orbit: 969 x 1007 km, 82.9° (Epoch: 25 June)

Date Brightness Start Highest point End Pass type
(mag) Time Alt. Az. Time Alt. Az. Time Alt. Az.
26 Jun 6.6 03:00:48 10° NW 03:03:49 14° W 03:06:50 10° WSW visible
27 Jun 4.9 01:42:03 10° NNW 01:48:08 55° W 01:54:14 10° SSW visible
28 Jun 6.1 02:11:56 10° NNW 02:17:05 27° W 02:22:15 10° SW visible
29 Jun 6.7 02:43:04 10° NW 02:45:49 13° W 02:48:34 10° WSW visible
01 Jul 6.3 01:54:02 10° NNW 01:59:05 26° W 02:04:10 10° SW visible
02 Jul 6.9 02:25:22 10° WNW 02:27:48 12° W 02:30:15 10° WSW visible
05 Jul 7.0 02:07:44 10° WNW 02:09:49 12° W 02:11:54 10° W visible
